Data supplied by UK-AIR on 5/4/2008
All Data GMT hour ending 
Status: R =Ratified P=Provisional,P*=As supplied
,,Walsall Alumwell,,,,,,,,,,,,,,,,,,,,,,,
Date,time,"Nitric oxide",status,unit,"Nitrogen dioxide",status,unit,"Nitrogen oxides as nitrogen dioxide",status,unit
 
01-01-2001,01:00,,,,,,,,,
01-01-2001,02:00,3,R,ugm-3,19,R,ugm-3,23,R,ugm-3
01-01-2001,03:00,3,R,ugm-3,13,R,ugm-3,17,R,ugm-3
01-01-2001,04:00,3,R,ugm-3,11,R,ugm-3,15,R,ugm-3
01-01-2001,05:00,3,R,ugm-3,13,R,ugm-3,17,R,ugm-3
01-01-2001,06:00,3,R,ugm-3,10,R,ugm-3,13,R,ugm-3
01-01-2001,07:00,3,R,ugm-3,6,R,ugm-3,10,R,ugm-3
01-01-2001,08:00,3,R,ugm-3,19,R,ugm-3,23,R,ugm-3
01-01-2001,09:00,4,R,ugm-3,21,R,ugm-3,27,R,ugm-3
01-01-2001,10:00,6,R,ugm-3,23,R,ugm-3,32,R,ugm-3
01-01-2001,11:00,8,R,ugm-3,13,R,ugm-3,25,R,ugm-3
01-01-2001,12:00,8,R,ugm-3,13,R,ugm-3,25,R,ugm-3
01-01-2001,13:00,6,R,ugm-3,15,R,ugm-3,25,R,ugm-3
01-01-2001,14:00,5,R,ugm-3,21,R,ugm-3,29,R,ugm-3
01-01-2001,15:00,5,R,ugm-3,25,R,ugm-3,32,R,ugm-3
01-01-2001,16:00,4,R,ugm-3,23,R,ugm-3,29,R,ugm-3
01-01-2001,17:00,3,R,ugm-3,27,R,ugm-3,31,R,ugm-3
01-01-2001,18:00,3,R,ugm-3,25,R,ugm-3,29,R,ugm-3
01-01-2001,19:00,3,R,ugm-3,25,R,ugm-3,29,R,ugm-3
01-01-2001,20:00,3,R,ugm-3,19,R,ugm-3,23,R,ugm-3
01-01-2001,21:00,3,R,ugm-3,15,R,ugm-3,19,R,ugm-3
01-01-2001,22:00,3,R,ugm-3,11,R,ugm-3,15,R,ugm-3
01-01-2001,23:00,3,R,ugm-3,10,R,ugm-3,13,R,ugm-3
01-01-2001,24:00,3,R,ugm-3,10,R,ugm-3,13,R,ugm-3
02-01-2001,01:00,3,R,ugm-3,8,R,ugm-3,11,R,ugm-3
02-01-2001,02:00,3,R,ugm-3,10,R,ugm-3,13,R,ugm-3
02-01-2001,03:00,3,R,ugm-3,8,R,ugm-3,11,R,ugm-3
02-01-2001,04:00,3,R,ugm-3,8,R,ugm-3,11,R,ugm-3
02-01-2001,05:00,3,R,ugm-3,11,R,ugm-3,15,R,ugm-3
02-01-2001,06:00,3,R,ugm-3,13,R,ugm-3,17,R,ugm-3
02-01-2001,07:00,4,R,ugm-3,23,R,ugm-3,29,R,ugm-3
02-01-2001,08:00,6,R,ugm-3,34,R,ugm-3,44,R,ugm-3
02-01-2001,09:00,8,R,ugm-3,50,R,ugm-3,61,R,ugm-3
02-01-2001,10:00,9,R,ugm-3,50,R,ugm-3,63,R,ugm-3
02-01-2001,11:00,9,R,ugm-3,44,R,ugm-3,57,R,ugm-3
02-01-2001,12:00,19,R,ugm-3,57,R,ugm-3,86,R,ugm-3
02-01-2001,13:00,26,R,ugm-3,52,R,ugm-3,92,R,ugm-3
02-01-2001,14:00,34,R,ugm-3,46,R,ugm-3,97,R,ugm-3
02-01-2001,15:00,38,R,ugm-3,53,R,ugm-3,111,R,ugm-3
02-01-2001,16:00,38,R,ugm-3,53,R,ugm-3,111,R,ugm-3
02-01-2001,17:00,43,R,ugm-3,59,R,ugm-3,124,R,ugm-3
02-01-2001,18:00,34,R,ugm-3,52,R,ugm-3,103,R,ugm-3
02-01-2001,19:00,28,R,ugm-3,40,R,ugm-3,82,R,ugm-3
02-01-2001,20:00,21,R,ugm-3,29,R,ugm-3,61,R,ugm-3
02-01-2001,21:00,19,R,ugm-3,29,R,ugm-3,57,R,ugm-3
02-01-2001,22:00,19,R,ugm-3,27,R,ugm-3,55,R,ugm-3
02-01-2001,23:00,18,R,ugm-3,31,R,ugm-3,57,R,ugm-3
02-01-2001,24:00,13,R,ugm-3,25,R,ugm-3,44,R,ugm-3
03-01-2001,01:00,11,R,ugm-3,23,R,ugm-3,40,R,ugm-3
03-01-2001,02:00,11,R,ugm-3,19,R,ugm-3,36,R,ugm-3
03-01-2001,03:00,13,R,ugm-3,21,R,ugm-3,40,R,ugm-3
03-01-2001,04:00,15,R,ugm-3,32,R,ugm-3,55,R,ugm-3
03-01-2001,05:00,20,R,ugm-3,31,R,ugm-3,61,R,ugm-3
03-01-2001,06:00,34,R,ugm-3,42,R,ugm-3,94,R,ugm-3
03-01-2001,07:00,61,R,ugm-3,59,R,ugm-3,153,R,ugm-3
03-01-2001,08:00,38,R,ugm-3,61,R,ugm-3,118,R,ugm-3
03-01-2001,09:00,26,R,ugm-3,63,R,ugm-3,103,R,ugm-3
03-01-2001,10:00,35,R,ugm-3,59,R,ugm-3,113,R,ugm-3
03-01-2001,11:00,31,R,ugm-3,57,R,ugm-3,105,R,ugm-3
03-01-2001,12:00,26,R,ugm-3,52,R,ugm-3,92,R,ugm-3
03-01-2001,13:00,25,R,ugm-3,46,R,ugm-3,84,R,ugm-3
03-01-2001,14:00,18,R,ugm-3,46,R,ugm-3,73,R,ugm-3
03-01-2001,15:00,,,,,,,,,
03-01-2001,16:00,14,R,ugm-3,52,R,ugm-3,73,R,ugm-3
03-01-2001,17:00,9,R,ugm-3,42,R,ugm-3,55,R,ugm-3
03-01-2001,18:00,8,R,ugm-3,46,R,ugm-3,57,R,ugm-3
03-01-2001,19:00,8,R,ugm-3,40,R,ugm-3,52,R,ugm-3
03-01-2001,20:00,8,R,ugm-3,36,R,ugm-3,48,R,ugm-3
03-01-2001,21:00,8,R,ugm-3,29,R,ugm-3,40,R,ugm-3
03-01-2001,22:00,8,R,ugm-3,36,R,ugm-3,48,R,ugm-3
03-01-2001,23:00,9,R,ugm-3,46,R,ugm-3,59,R,ugm-3
03-01-2001,24:00,10,R,ugm-3,38,R,ugm-3,53,R,ugm-3
04-01-2001,01:00,4,R,ugm-3,29,R,ugm-3,34,R,ugm-3
04-01-2001,02:00,5,R,ugm-3,25,R,ugm-3,32,R,ugm-3
04-01-2001,03:00,5,R,ugm-3,21,R,ugm-3,29,R,ugm-3
04-01-2001,04:00,4,R,ugm-3,21,R,ugm-3,27,R,ugm-3
04-01-2001,05:00,4,R,ugm-3,25,R,ugm-3,31,R,ugm-3
04-01-2001,06:00,5,R,ugm-3,38,R,ugm-3,46,R,ugm-3
04-01-2001,07:00,18,R,ugm-3,61,R,ugm-3,88,R,ugm-3
04-01-2001,08:00,70,R,ugm-3,74,R,ugm-3,181,R,ugm-3
04-01-2001,09:00,116,R,ugm-3,76,R,ugm-3,254,R,ugm-3
04-01-2001,10:00,76,R,ugm-3,69,R,ugm-3,185,R,ugm-3
04-01-2001,11:00,64,R,ugm-3,61,R,ugm-3,159,R,ugm-3
04-01-2001,12:00,59,R,ugm-3,57,R,ugm-3,147,R,ugm-3
04-01-2001,13:00,43,R,ugm-3,50,R,ugm-3,115,R,ugm-3
04-01-2001,14:00,59,R,ugm-3,61,R,ugm-3,151,R,ugm-3
04-01-2001,15:00,45,R,ugm-3,53,R,ugm-3,122,R,ugm-3
04-01-2001,16:00,40,R,ugm-3,52,R,ugm-3,113,R,ugm-3
04-01-2001,17:00,44,R,ugm-3,53,R,ugm-3,120,R,ugm-3
04-01-2001,18:00,55,R,ugm-3,65,R,ugm-3,149,R,ugm-3
04-01-2001,19:00,89,R,ugm-3,71,R,ugm-3,206,R,ugm-3
04-01-2001,20:00,94,R,ugm-3,73,R,ugm-3,216,R,ugm-3
04-01-2001,21:00,118,R,ugm-3,78,R,ugm-3,258,R,ugm-3
04-01-2001,22:00,85,R,ugm-3,69,R,ugm-3,199,R,ugm-3
04-01-2001,23:00,39,R,ugm-3,52,R,ugm-3,111,R,ugm-3
04-01-2001,24:00,36,R,ugm-3,57,R,ugm-3,113,R,ugm-3
05-01-2001,01:00,15,R,ugm-3,52,R,ugm-3,74,R,ugm-3
05-01-2001,02:00,44,R,ugm-3,65,R,ugm-3,132,R,ugm-3
05-01-2001,03:00,15,R,ugm-3,65,R,ugm-3,88,R,ugm-3
05-01-2001,04:00,13,R,ugm-3,59,R,ugm-3,78,R,ugm-3
05-01-2001,05:00,11,R,ugm-3,53,R,ugm-3,71,R,ugm-3
05-01-2001,06:00,28,R,ugm-3,55,R,ugm-3,97,R,ugm-3
05-01-2001,07:00,34,R,ugm-3,55,R,ugm-3,107,R,ugm-3
05-01-2001,08:00,39,R,ugm-3,55,R,ugm-3,115,R,ugm-3
05-01-2001,09:00,46,R,ugm-3,57,R,ugm-3,128,R,ugm-3
05-01-2001,10:00,148,R,ugm-3,65,R,ugm-3,290,R,ugm-3
05-01-2001,11:00,103,R,ugm-3,57,R,ugm-3,214,R,ugm-3
05-01-2001,12:00,98,R,ugm-3,55,R,ugm-3,204,R,ugm-3
05-01-2001,13:00,81,R,ugm-3,53,R,ugm-3,178,R,ugm-3
05-01-2001,14:00,54,R,ugm-3,48,R,ugm-3,130,R,ugm-3
05-01-2001,15:00,89,R,ugm-3,59,R,ugm-3,195,R,ugm-3
05-01-2001,16:00,126,R,ugm-3,69,R,ugm-3,262,R,ugm-3
05-01-2001,17:00,154,R,ugm-3,74,R,ugm-3,309,R,ugm-3
05-01-2001,18:00,223,R,ugm-3,80,R,ugm-3,420,R,ugm-3
05-01-2001,19:00,288,R,ugm-3,88,R,ugm-3,527,R,ugm-3
05-01-2001,20:00,379,R,ugm-3,101,R,ugm-3,680,R,ugm-3
05-01-2001,21:00,446,R,ugm-3,107,R,ugm-3,789,R,ugm-3
05-01-2001,22:00,266,R,ugm-3,80,R,ugm-3,487,R,ugm-3
05-01-2001,23:00,230,R,ugm-3,74,R,ugm-3,426,R,ugm-3
05-01-2001,24:00,178,R,ugm-3,65,R,ugm-3,336,R,ugm-3
06-01-2001,01:00,101,R,ugm-3,59,R,ugm-3,214,R,ugm-3
06-01-2001,02:00,93,R,ugm-3,63,R,ugm-3,204,R,ugm-3
06-01-2001,03:00,80,R,ugm-3,59,R,ugm-3,181,R,ugm-3
06-01-2001,04:00,20,R,ugm-3,40,R,ugm-3,71,R,ugm-3
06-01-2001,05:00,20,R,ugm-3,40,R,ugm-3,71,R,ugm-3
06-01-2001,06:00,25,R,ugm-3,40,R,ugm-3,78,R,ugm-3
06-01-2001,07:00,35,R,ugm-3,48,R,ugm-3,101,R,ugm-3
06-01-2001,08:00,29,R,ugm-3,46,R,ugm-3,90,R,ugm-3
06-01-2001,09:00,29,R,ugm-3,48,R,ugm-3,92,R,ugm-3
06-01-2001,10:00,33,R,ugm-3,48,R,ugm-3,97,R,ugm-3
06-01-2001,11:00,33,R,ugm-3,46,R,ugm-3,96,R,ugm-3
06-01-2001,12:00,28,R,ugm-3,38,R,ugm-3,80,R,ugm-3
06-01-2001,13:00,25,R,ugm-3,34,R,ugm-3,73,R,ugm-3
06-01-2001,14:00,28,R,ugm-3,34,R,ugm-3,76,R,ugm-3
06-01-2001,15:00,18,R,ugm-3,23,R,ugm-3,50,R,ugm-3
06-01-2001,16:00,21,R,ugm-3,32,R,ugm-3,65,R,ugm-3
06-01-2001,17:00,24,R,ugm-3,36,R,ugm-3,73,R,ugm-3
06-01-2001,18:00,21,R,ugm-3,40,R,ugm-3,73,R,ugm-3
06-01-2001,19:00,25,R,ugm-3,44,R,ugm-3,82,R,ugm-3
06-01-2001,20:00,31,R,ugm-3,46,R,ugm-3,94,R,ugm-3
06-01-2001,21:00,28,R,ugm-3,44,R,ugm-3,86,R,ugm-3
06-01-2001,22:00,20,R,ugm-3,40,R,ugm-3,71,R,ugm-3
06-01-2001,23:00,11,R,ugm-3,32,R,ugm-3,50,R,ugm-3
06-01-2001,24:00,9,R,ugm-3,29,R,ugm-3,42,R,ugm-3
07-01-2001,01:00,11,R,ugm-3,31,R,ugm-3,48,R,ugm-3
07-01-2001,02:00,8,R,ugm-3,21,R,ugm-3,32,R,ugm-3
07-01-2001,03:00,8,R,ugm-3,21,R,ugm-3,32,R,ugm-3
07-01-2001,04:00,8,R,ugm-3,15,R,ugm-3,27,R,ugm-3
07-01-2001,05:00,8,R,ugm-3,13,R,ugm-3,25,R,ugm-3
07-01-2001,06:00,8,R,ugm-3,25,R,ugm-3,36,R,ugm-3
07-01-2001,07:00,10,R,ugm-3,25,R,ugm-3,40,R,ugm-3
07-01-2001,08:00,15,R,ugm-3,25,R,ugm-3,48,R,ugm-3
07-01-2001,09:00,13,R,ugm-3,29,R,ugm-3,48,R,ugm-3
07-01-2001,10:00,23,R,ugm-3,36,R,ugm-3,71,R,ugm-3
07-01-2001,11:00,18,R,ugm-3,25,R,ugm-3,52,R,ugm-3
07-01-2001,12:00,13,R,ugm-3,21,R,ugm-3,40,R,ugm-3
07-01-2001,13:00,14,R,ugm-3,17,R,ugm-3,38,R,ugm-3
07-01-2001,14:00,13,R,ugm-3,15,R,ugm-3,34,R,ugm-3
07-01-2001,15:00,13,R,ugm-3,19,R,ugm-3,38,R,ugm-3
07-01-2001,16:00,13,R,ugm-3,21,R,ugm-3,40,R,ugm-3
07-01-2001,17:00,15,R,ugm-3,31,R,ugm-3,53,R,ugm-3
07-01-2001,18:00,16,R,ugm-3,27,R,ugm-3,52,R,ugm-3
07-01-2001,19:00,15,R,ugm-3,25,R,ugm-3,48,R,ugm-3
07-01-2001,20:00,18,R,ugm-3,27,R,ugm-3,53,R,ugm-3
07-01-2001,21:00,13,R,ugm-3,25,R,ugm-3,44,R,ugm-3
07-01-2001,22:00,14,R,ugm-3,23,R,ugm-3,44,R,ugm-3
07-01-2001,23:00,8,R,ugm-3,13,R,ugm-3,25,R,ugm-3
07-01-2001,24:00,9,R,ugm-3,17,R,ugm-3,31,R,ugm-3
08-01-2001,01:00,5,R,ugm-3,19,R,ugm-3,27,R,ugm-3
08-01-2001,02:00,6,R,ugm-3,21,R,ugm-3,31,R,ugm-3
08-01-2001,03:00,5,R,ugm-3,29,R,ugm-3,36,R,ugm-3
08-01-2001,04:00,11,R,ugm-3,31,R,ugm-3,48,R,ugm-3
08-01-2001,05:00,20,R,ugm-3,36,R,ugm-3,67,R,ugm-3
08-01-2001,06:00,58,R,ugm-3,59,R,ugm-3,147,R,ugm-3
08-01-2001,07:00,79,R,ugm-3,63,R,ugm-3,183,R,ugm-3
08-01-2001,08:00,94,R,ugm-3,71,R,ugm-3,214,R,ugm-3
08-01-2001,09:00,95,R,ugm-3,73,R,ugm-3,218,R,ugm-3
08-01-2001,10:00,73,R,ugm-3,65,R,ugm-3,176,R,ugm-3
08-01-2001,11:00,55,R,ugm-3,55,R,ugm-3,139,R,ugm-3
08-01-2001,12:00,41,R,ugm-3,50,R,ugm-3,113,R,ugm-3
08-01-2001,13:00,43,R,ugm-3,52,R,ugm-3,117,R,ugm-3
08-01-2001,14:00,43,R,ugm-3,52,R,ugm-3,117,R,ugm-3
08-01-2001,15:00,41,R,ugm-3,55,R,ugm-3,118,R,ugm-3
08-01-2001,16:00,45,R,ugm-3,63,R,ugm-3,132,R,ugm-3
08-01-2001,17:00,56,R,ugm-3,69,R,ugm-3,155,R,ugm-3
08-01-2001,18:00,74,R,ugm-3,78,R,ugm-3,191,R,ugm-3
08-01-2001,19:00,59,R,ugm-3,69,R,ugm-3,159,R,ugm-3
08-01-2001,20:00,76,R,ugm-3,73,R,ugm-3,189,R,ugm-3
08-01-2001,21:00,96,R,ugm-3,76,R,ugm-3,223,R,ugm-3
08-01-2001,22:00,90,R,ugm-3,74,R,ugm-3,212,R,ugm-3
08-01-2001,23:00,119,R,ugm-3,80,R,ugm-3,262,R,ugm-3
08-01-2001,24:00,101,R,ugm-3,78,R,ugm-3,233,R,ugm-3
09-01-2001,01:00,109,R,ugm-3,73,R,ugm-3,239,R,ugm-3
09-01-2001,02:00,103,R,ugm-3,69,R,ugm-3,225,R,ugm-3
09-01-2001,03:00,95,R,ugm-3,65,R,ugm-3,210,R,ugm-3
09-01-2001,04:00,100,R,ugm-3,53,R,ugm-3,206,R,ugm-3
09-01-2001,05:00,104,R,ugm-3,50,R,ugm-3,208,R,ugm-3
09-01-2001,06:00,144,R,ugm-3,61,R,ugm-3,281,R,ugm-3
09-01-2001,07:00,176,R,ugm-3,73,R,ugm-3,342,R,ugm-3
09-01-2001,08:00,295,R,ugm-3,90,R,ugm-3,541,R,ugm-3
09-01-2001,09:00,415,R,ugm-3,103,R,ugm-3,737,R,ugm-3
09-01-2001,10:00,518,R,ugm-3,120,R,ugm-3,911,R,ugm-3
09-01-2001,11:00,579,R,ugm-3,160,R,ugm-3,1045,R,ugm-3
09-01-2001,12:00,468,R,ugm-3,166,R,ugm-3,881,R,ugm-3
09-01-2001,13:00,246,R,ugm-3,136,R,ugm-3,512,R,ugm-3
09-01-2001,14:00,113,R,ugm-3,94,R,ugm-3,265,R,ugm-3
09-01-2001,15:00,53,R,ugm-3,76,R,ugm-3,157,R,ugm-3
09-01-2001,16:00,78,R,ugm-3,78,R,ugm-3,197,R,ugm-3
09-01-2001,17:00,105,R,ugm-3,78,R,ugm-3,239,R,ugm-3
09-01-2001,18:00,155,R,ugm-3,86,R,ugm-3,323,R,ugm-3
09-01-2001,19:00,150,R,ugm-3,84,R,ugm-3,313,R,ugm-3
09-01-2001,20:00,135,R,ugm-3,78,R,ugm-3,285,R,ugm-3
09-01-2001,21:00,126,R,ugm-3,74,R,ugm-3,267,R,ugm-3
09-01-2001,22:00,134,R,ugm-3,74,R,ugm-3,279,R,ugm-3
09-01-2001,23:00,126,R,ugm-3,76,R,ugm-3,269,R,ugm-3
09-01-2001,24:00,91,R,ugm-3,67,R,ugm-3,206,R,ugm-3
10-01-2001,01:00,33,R,ugm-3,55,R,ugm-3,105,R,ugm-3
10-01-2001,02:00,21,R,ugm-3,48,R,ugm-3,80,R,ugm-3
10-01-2001,03:00,21,R,ugm-3,46,R,ugm-3,78,R,ugm-3
10-01-2001,04:00,18,R,ugm-3,46,R,ugm-3,73,R,ugm-3
10-01-2001,05:00,20,R,ugm-3,42,R,ugm-3,73,R,ugm-3
10-01-2001,06:00,11,R,ugm-3,44,R,ugm-3,61,R,ugm-3
10-01-2001,07:00,13,R,ugm-3,36,R,ugm-3,55,R,ugm-3
10-01-2001,08:00,14,R,ugm-3,34,R,ugm-3,55,R,ugm-3
10-01-2001,09:00,24,R,ugm-3,44,R,ugm-3,80,R,ugm-3
10-01-2001,10:00,33,R,ugm-3,46,R,ugm-3,96,R,ugm-3
10-01-2001,11:00,33,R,ugm-3,50,R,ugm-3,99,R,ugm-3
10-01-2001,12:00,20,R,ugm-3,36,R,ugm-3,67,R,ugm-3
10-01-2001,13:00,18,R,ugm-3,38,R,ugm-3,65,R,ugm-3
10-01-2001,14:00,13,R,ugm-3,36,R,ugm-3,55,R,ugm-3
10-01-2001,15:00,13,R,ugm-3,36,R,ugm-3,55,R,ugm-3
10-01-2001,16:00,9,R,ugm-3,34,R,ugm-3,48,R,ugm-3
10-01-2001,17:00,8,R,ugm-3,34,R,ugm-3,46,R,ugm-3
10-01-2001,18:00,8,R,ugm-3,46,R,ugm-3,57,R,ugm-3
10-01-2001,19:00,8,R,ugm-3,42,R,ugm-3,53,R,ugm-3
10-01-2001,20:00,9,R,ugm-3,42,R,ugm-3,55,R,ugm-3
10-01-2001,21:00,8,R,ugm-3,40,R,ugm-3,52,R,ugm-3
10-01-2001,22:00,8,R,ugm-3,36,R,ugm-3,48,R,ugm-3
10-01-2001,23:00,5,R,ugm-3,32,R,ugm-3,40,R,ugm-3
10-01-2001,24:00,4,R,ugm-3,32,R,ugm-3,38,R,ugm-3
11-01-2001,01:00,4,R,ugm-3,23,R,ugm-3,29,R,ugm-3
11-01-2001,02:00,3,R,ugm-3,13,R,ugm-3,17,R,ugm-3
11-01-2001,03:00,4,R,ugm-3,15,R,ugm-3,21,R,ugm-3
11-01-2001,04:00,3,R,ugm-3,11,R,ugm-3,15,R,ugm-3
11-01-2001,05:00,8,R,ugm-3,11,R,ugm-3,23,R,ugm-3
11-01-2001,06:00,6,R,ugm-3,13,R,ugm-3,23,R,ugm-3
11-01-2001,07:00,8,R,ugm-3,15,R,ugm-3,27,R,ugm-3
11-01-2001,08:00,8,R,ugm-3,13,R,ugm-3,25,R,ugm-3
11-01-2001,09:00,9,R,ugm-3,27,R,ugm-3,40,R,ugm-3
11-01-2001,10:00,8,R,ugm-3,23,R,ugm-3,34,R,ugm-3
11-01-2001,11:00,8,R,ugm-3,19,R,ugm-3,31,R,ugm-3
11-01-2001,12:00,8,R,ugm-3,21,R,ugm-3,32,R,ugm-3
11-01-2001,13:00,8,R,ugm-3,17,R,ugm-3,29,R,ugm-3
11-01-2001,14:00,8,R,ugm-3,10,R,ugm-3,21,R,ugm-3
11-01-2001,15:00,8,R,ugm-3,11,R,ugm-3,23,R,ugm-3
11-01-2001,16:00,8,R,ugm-3,19,R,ugm-3,31,R,ugm-3
11-01-2001,17:00,8,R,ugm-3,17,R,ugm-3,29,R,ugm-3
11-01-2001,18:00,8,R,ugm-3,19,R,ugm-3,31,R,ugm-3
11-01-2001,19:00,6,R,ugm-3,15,R,ugm-3,25,R,ugm-3
11-01-2001,20:00,6,R,ugm-3,17,R,ugm-3,27,R,ugm-3
11-01-2001,21:00,6,R,ugm-3,19,R,ugm-3,29,R,ugm-3
11-01-2001,22:00,6,R,ugm-3,19,R,ugm-3,29,R,ugm-3
11-01-2001,23:00,3,R,ugm-3,15,R,ugm-3,19,R,ugm-3
11-01-2001,24:00,3,R,ugm-3,10,R,ugm-3,13,R,ugm-3
12-01-2001,01:00,3,R,ugm-3,8,R,ugm-3,11,R,ugm-3
12-01-2001,02:00,3,R,ugm-3,10,R,ugm-3,13,R,ugm-3
12-01-2001,03:00,3,R,ugm-3,4,R,ugm-3,8,R,ugm-3
12-01-2001,04:00,3,R,ugm-3,4,R,ugm-3,8,R,ugm-3
12-01-2001,05:00,3,R,ugm-3,4,R,ugm-3,8,R,ugm-3
12-01-2001,06:00,3,R,ugm-3,8,R,ugm-3,11,R,ugm-3
12-01-2001,07:00,3,R,ugm-3,11,R,ugm-3,15,R,ugm-3
12-01-2001,08:00,8,R,ugm-3,29,R,ugm-3,40,R,ugm-3
12-01-2001,09:00,8,R,ugm-3,31,R,ugm-3,42,R,ugm-3
12-01-2001,10:00,8,R,ugm-3,29,R,ugm-3,40,R,ugm-3
12-01-2001,11:00,9,R,ugm-3,27,R,ugm-3,40,R,ugm-3
12-01-2001,12:00,9,R,ugm-3,27,R,ugm-3,40,R,ugm-3
12-01-2001,13:00,8,R,ugm-3,23,R,ugm-3,34,R,ugm-3
12-01-2001,14:00,8,R,ugm-3,27,R,ugm-3,38,R,ugm-3
12-01-2001,15:00,8,R,ugm-3,27,R,ugm-3,38,R,ugm-3
12-01-2001,16:00,8,R,ugm-3,19,R,ugm-3,31,R,ugm-3
12-01-2001,17:00,8,R,ugm-3,23,R,ugm-3,34,R,ugm-3
12-01-2001,18:00,8,R,ugm-3,34,R,ugm-3,46,R,ugm-3
12-01-2001,19:00,8,R,ugm-3,36,R,ugm-3,48,R,ugm-3
12-01-2001,20:00,9,R,ugm-3,34,R,ugm-3,48,R,ugm-3
12-01-2001,21:00,8,R,ugm-3,32,R,ugm-3,44,R,ugm-3
12-01-2001,22:00,8,R,ugm-3,32,R,ugm-3,44,R,ugm-3
12-01-2001,23:00,5,R,ugm-3,29,R,ugm-3,36,R,ugm-3
12-01-2001,24:00,3,R,ugm-3,23,R,ugm-3,27,R,ugm-3
13-01-2001,01:00,3,R,ugm-3,15,R,ugm-3,19,R,ugm-3
13-01-2001,02:00,3,R,ugm-3,8,R,ugm-3,11,R,ugm-3
13-01-2001,03:00,3,R,ugm-3,8,R,ugm-3,11,R,ugm-3
13-01-2001,04:00,3,R,ugm-3,11,R,ugm-3,15,R,ugm-3
13-01-2001,05:00,3,R,ugm-3,11,R,ugm-3,15,R,ugm-3
13-01-2001,06:00,3,R,ugm-3,15,R,ugm-3,19,R,ugm-3
13-01-2001,07:00,4,R,ugm-3,25,R,ugm-3,31,R,ugm-3
13-01-2001,08:00,18,R,ugm-3,46,R,ugm-3,73,R,ugm-3
13-01-2001,09:00,24,R,ugm-3,52,R,ugm-3,88,R,ugm-3
13-01-2001,10:00,39,R,ugm-3,52,R,ugm-3,111,R,ugm-3
13-01-2001,11:00,44,R,ugm-3,50,R,ugm-3,117,R,ugm-3
13-01-2001,12:00,20,R,ugm-3,38,R,ugm-3,69,R,ugm-3
13-01-2001,13:00,18,R,ugm-3,29,R,ugm-3,55,R,ugm-3
13-01-2001,14:00,16,R,ugm-3,34,R,ugm-3,59,R,ugm-3
13-01-2001,15:00,14,R,ugm-3,32,R,ugm-3,53,R,ugm-3
13-01-2001,16:00,14,R,ugm-3,44,R,ugm-3,65,R,ugm-3
13-01-2001,17:00,11,R,ugm-3,52,R,ugm-3,69,R,ugm-3
13-01-2001,18:00,11,R,ugm-3,50,R,ugm-3,67,R,ugm-3
13-01-2001,19:00,10,R,ugm-3,44,R,ugm-3,59,R,ugm-3
13-01-2001,20:00,10,R,ugm-3,46,R,ugm-3,61,R,ugm-3
13-01-2001,21:00,9,R,ugm-3,42,R,ugm-3,55,R,ugm-3
13-01-2001,22:00,8,R,ugm-3,38,R,ugm-3,50,R,ugm-3
13-01-2001,23:00,6,R,ugm-3,31,R,ugm-3,40,R,ugm-3
13-01-2001,24:00,4,R,ugm-3,32,R,ugm-3,38,R,ugm-3
14-01-2001,01:00,4,R,ugm-3,29,R,ugm-3,34,R,ugm-3
14-01-2001,02:00,3,R,ugm-3,27,R,ugm-3,31,R,ugm-3
14-01-2001,03:00,3,R,ugm-3,25,R,ugm-3,29,R,ugm-3
14-01-2001,04:00,4,R,ugm-3,19,R,ugm-3,25,R,ugm-3
14-01-2001,05:00,4,R,ugm-3,17,R,ugm-3,23,R,ugm-3
14-01-2001,06:00,3,R,ugm-3,11,R,ugm-3,15,R,ugm-3
14-01-2001,07:00,3,R,ugm-3,15,R,ugm-3,19,R,ugm-3
14-01-2001,08:00,4,R,ugm-3,27,R,ugm-3,32,R,ugm-3
14-01-2001,09:00,6,R,ugm-3,29,R,ugm-3,38,R,ugm-3
14-01-2001,10:00,11,R,ugm-3,32,R,ugm-3,50,R,ugm-3
14-01-2001,11:00,15,R,ugm-3,27,R,ugm-3,50,R,ugm-3
14-01-2001,12:00,18,R,ugm-3,27,R,ugm-3,53,R,ugm-3
14-01-2001,13:00,13,R,ugm-3,27,R,ugm-3,46,R,ugm-3
14-01-2001,14:00,11,R,ugm-3,23,R,ugm-3,40,R,ugm-3
14-01-2001,15:00,10,R,ugm-3,27,R,ugm-3,42,R,ugm-3
14-01-2001,16:00,11,R,ugm-3,31,R,ugm-3,48,R,ugm-3
14-01-2001,17:00,11,R,ugm-3,42,R,ugm-3,59,R,ugm-3
14-01-2001,18:00,10,R,ugm-3,52,R,ugm-3,67,R,ugm-3
14-01-2001,19:00,14,R,ugm-3,53,R,ugm-3,74,R,ugm-3
14-01-2001,20:00,14,R,ugm-3,55,R,ugm-3,76,R,ugm-3
14-01-2001,21:00,10,R,ugm-3,48,R,ugm-3,63,R,ugm-3
14-01-2001,22:00,4,R,ugm-3,31,R,ugm-3,36,R,ugm-3
14-01-2001,23:00,3,R,ugm-3,25,R,ugm-3,29,R,ugm-3
14-01-2001,24:00,3,R,ugm-3,17,R,ugm-3,21,R,ugm-3
15-01-2001,01:00,3,R,ugm-3,11,R,ugm-3,15,R,ugm-3
15-01-2001,02:00,3,R,ugm-3,11,R,ugm-3,15,R,ugm-3
15-01-2001,03:00,3,R,ugm-3,10,R,ugm-3,13,R,ugm-3
15-01-2001,04:00,3,R,ugm-3,4,R,ugm-3,8,R,ugm-3
15-01-2001,05:00,3,R,ugm-3,6,R,ugm-3,10,R,ugm-3
15-01-2001,06:00,3,R,ugm-3,6,R,ugm-3,10,R,ugm-3
15-01-2001,07:00,4,R,ugm-3,10,R,ugm-3,15,R,ugm-3
15-01-2001,08:00,6,R,ugm-3,17,R,ugm-3,27,R,ugm-3
15-01-2001,09:00,11,R,ugm-3,36,R,ugm-3,53,R,ugm-3
15-01-2001,10:00,13,R,ugm-3,34,R,ugm-3,53,R,ugm-3
15-01-2001,11:00,14,R,ugm-3,31,R,ugm-3,52,R,ugm-3
15-01-2001,12:00,13,R,ugm-3,31,R,ugm-3,50,R,ugm-3
15-01-2001,13:00,13,R,ugm-3,29,R,ugm-3,48,R,ugm-3
15-01-2001,14:00,14,R,ugm-3,29,R,ugm-3,50,R,ugm-3
15-01-2001,15:00,14,R,ugm-3,32,R,ugm-3,53,R,ugm-3
15-01-2001,16:00,16,R,ugm-3,38,R,ugm-3,63,R,ugm-3
15-01-2001,17:00,18,R,ugm-3,48,R,ugm-3,74,R,ugm-3
15-01-2001,18:00,19,R,ugm-3,46,R,ugm-3,74,R,ugm-3
15-01-2001,19:00,13,R,ugm-3,38,R,ugm-3,57,R,ugm-3
15-01-2001,20:00,13,R,ugm-3,38,R,ugm-3,57,R,ugm-3
15-01-2001,21:00,13,R,ugm-3,42,R,ugm-3,61,R,ugm-3
15-01-2001,22:00,21,R,ugm-3,44,R,ugm-3,76,R,ugm-3
15-01-2001,23:00,16,R,ugm-3,42,R,ugm-3,67,R,ugm-3
15-01-2001,24:00,19,R,ugm-3,42,R,ugm-3,71,R,ugm-3
16-01-2001,01:00,23,R,ugm-3,44,R,ugm-3,78,R,ugm-3
16-01-2001,02:00,29,R,ugm-3,52,R,ugm-3,96,R,ugm-3
16-01-2001,03:00,33,R,ugm-3,50,R,ugm-3,99,R,ugm-3
16-01-2001,04:00,38,R,ugm-3,52,R,ugm-3,109,R,ugm-3
16-01-2001,05:00,40,R,ugm-3,50,R,ugm-3,111,R,ugm-3
16-01-2001,06:00,60,R,ugm-3,53,R,ugm-3,145,R,ugm-3
16-01-2001,07:00,63,R,ugm-3,53,R,ugm-3,149,R,ugm-3
16-01-2001,08:00,71,R,ugm-3,55,R,ugm-3,164,R,ugm-3
16-01-2001,09:00,63,R,ugm-3,55,R,ugm-3,151,R,ugm-3
16-01-2001,10:00,91,R,ugm-3,57,R,ugm-3,197,R,ugm-3
16-01-2001,11:00,99,R,ugm-3,59,R,ugm-3,210,R,ugm-3
16-01-2001,12:00,96,R,ugm-3,61,R,ugm-3,208,R,ugm-3
16-01-2001,13:00,90,R,ugm-3,59,R,ugm-3,197,R,ugm-3
16-01-2001,14:00,88,R,ugm-3,61,R,ugm-3,195,R,ugm-3
16-01-2001,15:00,89,R,ugm-3,63,R,ugm-3,199,R,ugm-3
16-01-2001,16:00,106,R,ugm-3,69,R,ugm-3,231,R,ugm-3
16-01-2001,17:00,126,R,ugm-3,73,R,ugm-3,265,R,ugm-3
16-01-2001,18:00,123,R,ugm-3,74,R,ugm-3,262,R,ugm-3
16-01-2001,19:00,118,R,ugm-3,69,R,ugm-3,248,R,ugm-3
16-01-2001,20:00,118,R,ugm-3,67,R,ugm-3,246,R,ugm-3
16-01-2001,21:00,80,R,ugm-3,59,R,ugm-3,181,R,ugm-3
16-01-2001,22:00,71,R,ugm-3,59,R,ugm-3,168,R,ugm-3
16-01-2001,23:00,61,R,ugm-3,55,R,ugm-3,149,R,ugm-3
16-01-2001,24:00,56,R,ugm-3,55,R,ugm-3,141,R,ugm-3
17-01-2001,01:00,53,R,ugm-3,55,R,ugm-3,136,R,ugm-3
17-01-2001,02:00,59,R,ugm-3,55,R,ugm-3,145,R,ugm-3
17-01-2001,03:00,60,R,ugm-3,57,R,ugm-3,149,R,ugm-3
17-01-2001,04:00,63,R,ugm-3,52,R,ugm-3,147,R,ugm-3
17-01-2001,05:00,65,R,ugm-3,52,R,ugm-3,151,R,ugm-3
17-01-2001,06:00,76,R,ugm-3,57,R,ugm-3,174,R,ugm-3
17-01-2001,07:00,95,R,ugm-3,59,R,ugm-3,204,R,ugm-3
17-01-2001,08:00,125,R,ugm-3,67,R,ugm-3,258,R,ugm-3
17-01-2001,09:00,151,R,ugm-3,73,R,ugm-3,304,R,ugm-3
17-01-2001,10:00,191,R,ugm-3,82,R,ugm-3,374,R,ugm-3
17-01-2001,11:00,136,R,ugm-3,71,R,ugm-3,279,R,ugm-3
17-01-2001,12:00,,,,,,,,,
17-01-2001,13:00,,,,,,,,,
17-01-2001,14:00,36,R,ugm-3,48,R,ugm-3,103,R,ugm-3
17-01-2001,15:00,50,R,ugm-3,53,R,ugm-3,130,R,ugm-3
17-01-2001,16:00,99,R,ugm-3,67,R,ugm-3,218,R,ugm-3
17-01-2001,17:00,94,R,ugm-3,67,R,ugm-3,210,R,ugm-3
17-01-2001,18:00,90,R,ugm-3,69,R,ugm-3,206,R,ugm-3
17-01-2001,19:00,121,R,ugm-3,74,R,ugm-3,260,R,ugm-3
17-01-2001,20:00,135,R,ugm-3,76,R,ugm-3,283,R,ugm-3
17-01-2001,21:00,119,R,ugm-3,65,R,ugm-3,246,R,ugm-3
17-01-2001,22:00,80,R,ugm-3,59,R,ugm-3,181,R,ugm-3
17-01-2001,23:00,54,R,ugm-3,57,R,ugm-3,139,R,ugm-3
17-01-2001,24:00,50,R,ugm-3,55,R,ugm-3,132,R,ugm-3
18-01-2001,01:00,54,R,ugm-3,53,R,ugm-3,136,R,ugm-3
18-01-2001,02:00,71,R,ugm-3,63,R,ugm-3,172,R,ugm-3
18-01-2001,03:00,86,R,ugm-3,57,R,ugm-3,189,R,ugm-3
18-01-2001,04:00,105,R,ugm-3,61,R,ugm-3,222,R,ugm-3
18-01-2001,05:00,114,R,ugm-3,61,R,ugm-3,235,R,ugm-3
18-01-2001,06:00,124,R,ugm-3,65,R,ugm-3,254,R,ugm-3
18-01-2001,07:00,130,R,ugm-3,65,R,ugm-3,264,R,ugm-3
18-01-2001,08:00,164,R,ugm-3,71,R,ugm-3,321,R,ugm-3
18-01-2001,09:00,231,R,ugm-3,80,R,ugm-3,434,R,ugm-3
18-01-2001,10:00,235,R,ugm-3,86,R,ugm-3,445,R,ugm-3
18-01-2001,11:00,141,R,ugm-3,71,R,ugm-3,287,R,ugm-3
18-01-2001,12:00,90,R,ugm-3,63,R,ugm-3,201,R,ugm-3
18-01-2001,13:00,64,R,ugm-3,57,R,ugm-3,155,R,ugm-3
18-01-2001,14:00,119,R,ugm-3,71,R,ugm-3,252,R,ugm-3
18-01-2001,15:00,239,R,ugm-3,101,R,ugm-3,466,R,ugm-3
18-01-2001,16:00,215,R,ugm-3,99,R,ugm-3,428,R,ugm-3
18-01-2001,17:00,205,R,ugm-3,94,R,ugm-3,407,R,ugm-3
18-01-2001,18:00,219,R,ugm-3,97,R,ugm-3,432,R,ugm-3
18-01-2001,19:00,189,R,ugm-3,96,R,ugm-3,384,R,ugm-3
18-01-2001,20:00,150,R,ugm-3,86,R,ugm-3,315,R,ugm-3
18-01-2001,21:00,210,R,ugm-3,92,R,ugm-3,413,R,ugm-3
18-01-2001,22:00,323,R,ugm-3,113,R,ugm-3,605,R,ugm-3
18-01-2001,23:00,254,R,ugm-3,94,R,ugm-3,481,R,ugm-3
18-01-2001,24:00,195,R,ugm-3,84,R,ugm-3,382,R,ugm-3
19-01-2001,01:00,188,R,ugm-3,74,R,ugm-3,361,R,ugm-3
19-01-2001,02:00,258,R,ugm-3,99,R,ugm-3,493,R,ugm-3
19-01-2001,03:00,250,R,ugm-3,88,R,ugm-3,470,R,ugm-3
19-01-2001,04:00,196,R,ugm-3,80,R,ugm-3,380,R,ugm-3
19-01-2001,05:00,70,R,ugm-3,63,R,ugm-3,170,R,ugm-3
19-01-2001,06:00,55,R,ugm-3,50,R,ugm-3,134,R,ugm-3
19-01-2001,07:00,68,R,ugm-3,55,R,ugm-3,159,R,ugm-3
19-01-2001,08:00,114,R,ugm-3,65,R,ugm-3,239,R,ugm-3
19-01-2001,09:00,130,R,ugm-3,67,R,ugm-3,265,R,ugm-3
19-01-2001,10:00,153,R,ugm-3,73,R,ugm-3,306,R,ugm-3
19-01-2001,11:00,173,R,ugm-3,74,R,ugm-3,338,R,ugm-3
19-01-2001,12:00,155,R,ugm-3,84,R,ugm-3,321,R,ugm-3
19-01-2001,13:00,110,R,ugm-3,63,R,ugm-3,231,R,ugm-3
19-01-2001,14:00,101,R,ugm-3,61,R,ugm-3,216,R,ugm-3
19-01-2001,15:00,113,R,ugm-3,71,R,ugm-3,243,R,ugm-3
19-01-2001,16:00,128,R,ugm-3,74,R,ugm-3,269,R,ugm-3
19-01-2001,17:00,208,R,ugm-3,82,R,ugm-3,399,R,ugm-3
19-01-2001,18:00,180,R,ugm-3,76,R,ugm-3,351,R,ugm-3
19-01-2001,19:00,199,R,ugm-3,78,R,ugm-3,382,R,ugm-3
19-01-2001,20:00,226,R,ugm-3,76,R,ugm-3,422,R,ugm-3
19-01-2001,21:00,166,R,ugm-3,73,R,ugm-3,327,R,ugm-3
19-01-2001,22:00,90,R,ugm-3,57,R,ugm-3,195,R,ugm-3
19-01-2001,23:00,61,R,ugm-3,50,R,ugm-3,143,R,ugm-3
19-01-2001,24:00,50,R,ugm-3,48,R,ugm-3,124,R,ugm-3
20-01-2001,01:00,38,R,ugm-3,40,R,ugm-3,97,R,ugm-3
20-01-2001,02:00,76,R,ugm-3,53,R,ugm-3,170,R,ugm-3
20-01-2001,03:00,103,R,ugm-3,50,R,ugm-3,206,R,ugm-3
20-01-2001,04:00,96,R,ugm-3,48,R,ugm-3,195,R,ugm-3
20-01-2001,05:00,86,R,ugm-3,46,R,ugm-3,178,R,ugm-3
20-01-2001,06:00,85,R,ugm-3,46,R,ugm-3,176,R,ugm-3
20-01-2001,07:00,79,R,ugm-3,40,R,ugm-3,160,R,ugm-3
20-01-2001,08:00,70,R,ugm-3,38,R,ugm-3,145,R,ugm-3
20-01-2001,09:00,73,R,ugm-3,36,R,ugm-3,147,R,ugm-3
20-01-2001,10:00,80,R,ugm-3,38,R,ugm-3,160,R,ugm-3
20-01-2001,11:00,64,R,ugm-3,36,R,ugm-3,134,R,ugm-3
20-01-2001,12:00,61,R,ugm-3,38,R,ugm-3,132,R,ugm-3
20-01-2001,13:00,51,R,ugm-3,36,R,ugm-3,115,R,ugm-3
20-01-2001,14:00,40,R,ugm-3,32,R,ugm-3,94,R,ugm-3
20-01-2001,15:00,41,R,ugm-3,32,R,ugm-3,96,R,ugm-3
20-01-2001,16:00,49,R,ugm-3,40,R,ugm-3,115,R,ugm-3
20-01-2001,17:00,73,R,ugm-3,48,R,ugm-3,159,R,ugm-3